Content
SEND FEEDBACK

Daily
Averages
Monthly
Summary
United States of America

CUSHING, TEXAS


Home > North America > United States > Texas
Elevation: 350 feet     Latitude: 31 55N     Longitude: 094 51W

WEATHER
 
SELECT A DAY
Number of Records: 148,160;   Date Range: 10/21/08 - 12/17/14
 
SHARE

PRINT THIS DATA

[ ← Previous Day ]
WEATHER ALMANAC - JANUARY 31, 2013
[ Next Day → ]
[ °C ]   °F
Weather ElementAverageHighLow
Temperature45.5 °F62.6 °F (1:35 pm)28.4 °F (6:15 am)
Dewpoint25.3 °F32 °F (9:15 pm)17.6 °F (2:15 pm)
Humidity53.9 %93 % (1:35 am)18 % (2:15 pm)
Barometer30.21 in30.27 in (11:15 pm)30.16 in (5:15 pm)
Wind Speed3 mph11.5 mph (11:15 am)
Wind Gust25.3 mph (2:15 pm)
Weather ElementAverage
Visibility10 mi
Wind DirectionE (87.9 °)

Weather ElementTotal
Precipitation---
Heating Degree Days19.5 (Base 65)
Averaged from 70 records on January 31, 2013
WEATHER CONDITIONS BREAKOUT
WIND DIRECTION BREAKOUT
WEATHER BY HOUR - JANUARY 31, 2013
[ °C ]   °F
Local TimeTemperatureDewpointHumidityBarometerVisibilityWind DirectionWind SpeedGust SpeedPrecipitationEventsConditions
12:35 AM32.0 °F28.4 °F87 %30.17 in10.0 miCalmClear
12:55 AM32.0 °F28.4 °F87 %30.18 in10.0 miCalmClear
1:15 AM32.0 °F28.4 °F87 %30.18 in10.0 miCalmClear
1:35 AM30.2 °F28.4 °F93 %30.18 in10.0 miCalmClear
1:55 AM32.0 °F28.4 °F87 %30.18 in10.0 miCalmClear
2:15 AM30.2 °F28.4 °F93 %30.18 in10.0 miCalmClear
2:35 AM30.2 °F28.4 °F93 %30.18 in10.0 miCalmClear
2:55 AM30.2 °F28.4 °F93 %30.18 in10.0 miCalmClear
3:15 AM30.2 °F28.4 °F93 %30.18 in10.0 miCalmClear
3:35 AM32.0 °F28.4 °F87 %30.18 in10.0 miCalmClear
3:55 AM32.0 °F28.4 °F87 %30.18 in10.0 miCalmClear
4:15 AM32.0 °F28.4 °F87 %30.18 in10.0 miCalmClear
4:35 AM30.2 °F28.4 °F93 %30.18 in10.0 miCalmClear
4:55 AM30.2 °F26.6 °F86 %30.18 in10.0 miCalmClear
5:15 AM30.2 °F26.6 °F86 %30.18 in10.0 miCalmClear
5:35 AM30.2 °F28.4 °F93 %30.18 in10.0 miCalmClear
5:55 AM30.2 °F26.6 °F86 %30.18 in10.0 miCalmClear
6:15 AM28.4 °F26.6 °F93 %30.18 in10.0 miCalmClear
6:35 AM30.2 °F26.6 °F86 %30.19 in10.0 miCalmClear
6:55 AM30.2 °F26.6 °F86 %30.21 in10.0 miCalmClear
7:15 AM30.2 °F26.6 °F86 %30.21 in10.0 miCalmClear
7:55 AM32.0 °F28.4 °F87 %30.23 in10.0 miCalmClear
8:15 AM33.8 °F30.2 °F87 %30.24 in10.0 miCalmClear
8:35 AM39.2 °F28.4 °F65 %30.25 in10.0 miSSW (210°)4.6 mphClear
8:55 AM42.8 °F26.6 °F53 %30.25 in10.0 miCalmClear
9:15 AM44.6 °F26.6 °F49 %30.25 in10.0 miSSW (200°)3.5 mphClear
9:35 AM44.6 °F24.8 °F46 %30.26 in10.0 miSSW (200°)8.1 mphClear
9:55 AM50.0 °F24.8 °F37 %30.26 in10.0 miSW (230°)6.9 mphClear
10:15 AM51.8 °F23.0 °F33 %30.26 in10.0 miSSW (210°)6.9 mphClear
10:35 AM51.8 °F23.0 °F33 %30.26 in10.0 miSW (220°)8.1 mphClear
10:55 AM53.6 °F23.0 °F30 %30.25 in10.0 miSW (230°)8.1 mph16.1 mphClear
11:15 AM55.4 °F19.4 °F25 %30.25 in10.0 miSW (230°)11.5 mph17.3 mphClear
11:35 AM57.2 °F21.2 °F25 %30.25 in10.0 miWSW (250°)8.1 mph16.1 mphClear
11:55 AM57.2 °F21.2 °F25 %30.24 in10.0 miSW (220°)6.9 mph17.3 mphClear
12:15 PM59.0 °F21.2 °F23 %30.23 in10.0 miWSW (240°)10.4 mphClear
12:35 PM60.8 °F19.4 °F20 %30.22 in10.0 miWSW (240°)9.2 mphClear
12:55 PM60.8 °F21.2 °F22 %30.22 in10.0 miWSW (240°)10.4 mphClear
1:15 PM60.8 °F19.4 °F20 %30.20 in10.0 miSSW (200°)9.2 mphClear
1:35 PM62.6 °F21.2 °F20 %30.20 in10.0 miSSW (210°)11.5 mphClear
1:55 PM62.6 °F21.2 °F20 %30.19 in10.0 miWSW (240°)6.9 mph16.1 mphClear
2:15 PM62.6 °F17.6 °F18 %30.19 in10.0 miSW (230°)8.1 mph25.3 mphClear
2:35 PM62.6 °F19.4 °F19 %30.18 in10.0 miSSW (210°)6.9 mph18.4 mphClear
2:55 PM62.6 °F19.4 °F19 %30.18 in10.0 miSW (220°)8.1 mph16.1 mphClear
3:15 PM62.6 °F19.4 °F19 %30.17 in10.0 miSW (220°)6.9 mph18.4 mphClear
3:35 PM62.6 °F19.4 °F19 %30.18 in10.0 miSSW (210°)8.1 mph16.1 mphClear
3:55 PM62.6 °F19.4 °F19 %30.18 in10.0 miSW (220°)5.8 mphClear
4:15 PM62.6 °F21.2 °F20 %30.17 in10.0 miSW (220°)8.1 mphClear
4:35 PM62.6 °F19.4 °F19 %30.18 in10.0 miSSW (200°)6.9 mphClear
4:55 PM60.8 °F21.2 °F22 %30.18 in10.0 miSSW (200°)8.1 mphClear
5:15 PM60.8 °F21.2 °F22 %30.16 in10.0 miSSW (210°)4.6 mphClear
5:35 PM59.0 °F21.2 °F23 %30.17 in10.0 miSW (220°)3.5 mphClear
5:55 PM57.2 °F21.2 °F25 %30.18 in10.0 miSW (220°)3.5 mphClear
6:15 PM55.4 °F23.0 °F29 %30.18 in10.0 miCalmClear
6:35 PM53.6 °F23.0 °F30 %30.20 in10.0 miCalmClear
6:55 PM53.6 °F23.0 °F30 %30.21 in10.0 miCalmClear
7:15 PM48.2 °F28.4 °F46 %30.21 in10.0 miCalmClear
7:35 PM50.0 °F24.8 °F37 %30.22 in10.0 miCalmClear
7:55 PM50.0 °F24.8 °F37 %30.22 in10.0 miCalmClear
8:15 PM46.4 °F28.4 °F50 %30.23 in10.0 miCalmClear
8:35 PM44.6 °F28.4 °F53 %30.24 in10.0 miCalmClear
8:55 PM42.8 °F28.4 °F57 %30.24 in10.0 miCalmClear
9:15 PM42.8 °F32.0 °F66 %30.25 in10.0 miCalmClear
9:35 PM44.6 °F30.2 °F57 %30.24 in10.0 miCalmClear
9:55 PM42.8 °F30.2 °F61 %30.24 in10.0 miCalmClear
10:15 PM41.0 °F30.2 °F65 %30.25 in10.0 miCalmClear
10:35 PM42.8 °F30.2 °F61 %30.26 in10.0 miCalmClear
10:55 PM41.0 °F30.2 °F65 %30.26 in10.0 miCalmClear
11:15 PM41.0 °F30.2 °F65 %30.27 in10.0 miCalmClear
11:35 PM41.0 °F30.2 °F65 %30.27 in10.0 miCalmClear
11:55 PM41.0 °F30.2 °F65 %30.27 in10.0 miCalmClear
Hourly data recorded from KRFI, located miles away from Cushing, Texas







STORIES FROM OUR PARTNERS